Regional Weather Roundup
Issued by NWS Newport/Morehead, NC

Current Version | Previous Version | Text Only | Print | Product List | Glossary On
Versions: 1 2 3 4 5 6 7 8 9 10 11 12 13 14 15 16 17 18 19 20 21 22 23 24 25 26 27 28 29 30 31 32 33 34 35 36 37 38 39 40 41 42 43 44 45 46 47 48 49 50
000
ASUS42 KMHX 231412
RWRMHX
WEATHER ROUNDUP FOR EASTERN NORTH CAROLINA
NATIONAL WEATHER SERVICE NEWPORT/MOREHEAD CITY NC
1000 AM EDT SAT MAY 23 2015

NOTE: "FAIR" INDICATES FEW OR NO CLOUDS BELOW 12,000 FEET
WITH NO SIGNIFICANT WEATHER AND/OR OBSTRUCTIONS TO VISIBILITY

NCZ015>017-031-032-045>047-102-103-231500-
NORTH COAST

CITY           SKY/WX    TMP DP  RH WIND       PRES   REMARKS
EDENTON        MOSUNNY   68  51  54 NE9       30.43R
ELIZABETH CITY SUNNY     69  45  41 NE15      30.43R
KITTY HAWK     SUNNY     66  51  58 NE8G17    30.41R
MANTEO         SUNNY     67  50  55 NE15      30.42R

$$

NCZ045>047-081-094-103-104-231500-
CENTRAL COAST

CITY           SKY/WX    TMP DP  RH WIND       PRES   REMARKS
FRISCO         SUNNY     72  52  49 VRB7G18   30.41R
SWANQUARTER      N/A     72 N/A N/A N7        30.36S

$$

NCZ095-097-098-100-101-231500-
SOUTHERN COAST

CITY           SKY/WX    TMP DP  RH WIND       PRES   REMARKS
BEAUFORT       SUNNY     74  53  48 N7        30.40R
CEDAR ISLAND     N/A     72 N/A N/A NW10      30.44R
JACKSONVILLE   SUNNY     73  49  42 N7        30.40R
PINEY ISLAND   SUNNY    N/A N/A N/A NW10      30.40R
WILMINGTON     SUNNY     73  51  46 NE7       30.40R


$$

NCZ011>013-027>030-043-044-078>080-089-090>093-098-231500-
COASTAL PLAIN

CITY           SKY/WX    TMP DP  RH WIND       PRES   REMARKS
AHOSKIE        SUNNY     67  46  46 NE9       30.44
CLINTON        SUNNY     72  53  51 NE7       30.42S
ELIZABETHTOWN  SUNNY     69  52  54 CALM      30.41S
GOLDSBORO      NOT AVBL
GREENVILLE     SUNNY     70  52  52 NE12      30.42S
HAVELOCK       SUNNY     73  50  44 N10       30.42R
KENANSVILLE    SUNNY     71  50  48 N6        30.43S
KINSTON        SUNNY     68  52  56 NE8       30.43R
NEW BERN       SUNNY     72  51  47 N8        30.42R
RICHLANDS      SUNNY     72  52  49 CALM      30.42R
ROCKY MOUNT    MOSUNNY   69  45  41 NE10      30.44R
WASHINGTON     SUNNY     69  53  57 NE9       30.42S
WHITEVILLE     SUNNY     70  53  53 CALM      30.41R

$$

AMZ130-135-150-152-154-156-158-170-250-252-270-ANZ085-086-088-633-658-670-231500-
MARINE OBSERVATIONS

STATION/POSITION TIME  TEMP    WIND        PRES    WAVE   SWELL
                       AIR SEA DIR/SP/G            HT/PER HT/PER
                 (UTC) (F)     (DEG/KT/KT) (MB)    (FT/S) (FT/S)
CHESAPEAKE LIGHT 1300   61      20/ 21/ 23 1030.1
64 E VA BEACH    1350   61 60   20/ 12/ 14 1029.8    2/ 9   2/ 9
DUCK             1300   63 64   30/ 15/ 17 1028.7
2 E DUCK         1311      64                N/A     2/ 9
OREGON INLET     1300   66 68  360/  9/ 11 1029.2
13E OREGON INLT  1400      62                N/A     2/ 9
HATTERAS CG      1300   71 71  340/  7/  9 1028.4
DIAMOND BUOY     1350   71 77  360/ 12/ 14 1028.9    3/ 9   3/ 9
CAPE LOOKOUT     1400   71     360/  7/  9 1029.1
BEAUFORT LAB     1300   69 73  350/  5/  6 1028.2
27 SE WRIGHTSVLE 1300   69 77   90/ 10/ 12   N/A
5 SE WRIGHTSVLE  1308   72 76   70/ 10/ 16 1029.1
225 S CAPE HAT   1350   71 74   50/ 17/ 19 1027.1    5/ 5   2/ 8
41 SE CHARLESTON 1350   73 75   50/ 17/ 19 1027.0    4/ 5   2/ 8

$$



USA.gov is the U.S. government's official web portal to all federal, state and local government web resources and services.